Location: Arcizac
(43.0933°N, 0.0112°E)
Time: 17:09:02
(UTC+00:00)

COSMO-SKYMED 1 - Pass Details

Date: 14 December 2019
Orbit: 621 x 623 km, 97.9° (Epoch: 24 January)

Event Time Altitude Azimuth Distance (km) Brightness Sun altitude
Exits shadow 18:42:55 17° 353° (N) 1,609 4.6 -24.2°
Maximum altitude 18:45:59 42° 289° (WNW) 892 3.7 -24.7°
Drops below altitude 10° 18:50:04 10° 218° (SW) 1,987 5.7 -25.5°
Sets 18:52:19 0° 212° (SSW) 2,888 6.5 -25.9°
